Observations for Trim Patrick St
| Time | AQI | Temp °C | Hum % | Pres Pa | CO μg/m³ | H₂S μg/m³ | NO μg/m³ | NO₂ μg/m³ | O₃ μg/m³ | SO₂ μg/m³ | PM1 μg/m³ | PM2.5 μg/m³ | PM10 μg/m³ |
|---|---|---|---|---|---|---|---|---|---|---|---|---|---|
| Monday 3 August 2026 | |||||||||||||
| 08:54 | 2 | 21.5 | 67 | 31,314 | 0.14 | 0 | 3.2 | 13.09 | 39.28 | 2.89 | 5.43 | 10.46 | 11.51 |
| 08:53 | 2 | 21.4 | 66 | 32,493 | 0.15 | 0 | 3.17 | 10.34 | 38.91 | 2.43 | 5.43 | 9.02 | 9.92 |
| 08:52 | 2 | 21.4 | 67 | 37,327 | 0.16 | 0 | 3.14 | 13.3 | 36.01 | 2.46 | 5.43 | 11.16 | 12.28 |
| 08:51 | 2 | 21.4 | 67 | 38,460 | 0.17 | 0 | 2.79 | 14.61 | 36.6 | 2.86 | 5.43 | 9.71 | 10.68 |
| 08:50 | 2 | 21.3 | 67 | 38,460 | 0.16 | 0 | 3.11 | 13.02 | 35.48 | 2.86 | 3.71 | 8.99 | 9.88 |
| 08:49 | 2 | 21.2 | 68 | 38,460 | 0.18 | 0 | 2.79 | 12.88 | 40.59 | 2.09 | 4.57 | 9.66 | 10.63 |
| 08:48 | 2 | 21.2 | 68 | 38,460 | 0.17 | 0 | 2.53 | 13.92 | 37.33 | 2.75 | 4.57 | 8.93 | 9.82 |
| 08:47 | 2 | 21.1 | 68 | 38,460 | 0.16 | 0 | 1.89 | 14 | 44.34 | 2.32 | 4.57 | 9.65 | 10.61 |
| 08:46 | 2 | 21.1 | 68 | 38,460 | 0.15 | 0 | 1.66 | 12.13 | 39.81 | 1.52 | 5.43 | 10.38 | 11.42 |
| 08:45 | 2 | 21 | 69 | 38,460 | 0.18 | 0 | 1.73 | 15.08 | 44.6 | 2.26 | 4.57 | 10.26 | 11.29 |
| 08:43 | 2 | 20.8 | 68 | 38,460 | 0.13 | 0 | 2 | 12.15 | 40.67 | 0.92 | 5.43 | 9.61 | 10.58 |
| 08:42 | 2 | 20.7 | 70 | 38,460 | 0.12 | 0 | 2.54 | 12.07 | 44.85 | 0.87 | 5.43 | 9.5 | 10.45 |
| 08:41 | 2 | 20.6 | 71 | 38,460 | 0.11 | 0 | 1.87 | 12 | 40.04 | 1.13 | 6.29 | 10.11 | 11.13 |
| 08:40 | 2 | 20.5 | 71 | 38,460 | 0.1 | 1.93 | 1.13 | 19.39 | 53.53 | 1.82 | 4.57 | 8.7 | 9.57 |
| 08:38 | 2 | 20.3 | 69 | 38,460 | 0.11 | 0 | 1.18 | 14.54 | 45.8 | 0.72 | 5.43 | 9.52 | 10.48 |
| 08:37 | 2 | 20.2 | 69 | 38,460 | 0.11 | 0 | 1.01 | 13.31 | 45.39 | 1.41 | 5.43 | 9.55 | 10.51 |
| 08:36 | 2 | 20.2 | 69 | 38,460 | 0.1 | 0 | 1.23 | 12.21 | 41.18 | 1.55 | 5.43 | 10.28 | 11.31 |
| 08:35 | 2 | 20.2 | 70 | 38,460 | 0.1 | 0 | 1.56 | 12.27 | 41.38 | 1.29 | 3.71 | 8.07 | 8.88 |
| 08:34 | 2 | 20.1 | 69 | 38,460 | 0.12 | 0 | 1.08 | 12.48 | 44.79 | 0.04 | 5.43 | 10.25 | 11.27 |
| 08:33 | 2 | 20.1 | 69 | 38,460 | 0.12 | 0 | 1.21 | 15.41 | 44.37 | 0.31 | 5.43 | 10.25 | 11.27 |